User: anonymous   Login
Location: Tyler Bend Campground
(35.9875°N, 92.7606°W)
Time: 01:13:52
(UTC-05:00)
Language:

CZ-2C R/B - Orbit

View from above orbital plane
View from above orbital plane
View from above satellite
View from above satellite

Ground track
Ground track

The orbit data is extracted from the following two-line orbital elements,

1 36089U 09061B   14302.67039484  .00000407  00000-0  11324-3 0  4702
2 36089 098.0938 330.3002 0083843 125.3334 346.2782 14.49254761262413
Epoch (UTC): 29 October 2014 16:05:22
Eccentricity: 0.0083843
inclination: 98.0938°
perigee height: 668 km
apogee height: 787 km
right ascension of ascending node: 330.3002°
argument of perigee: 125.3334°
revolutions per day: 14.49254761
mean anomaly at epoch: 346.2782°
orbit number at epoch: 26241

The dashed part of the orbit path shows where the satellite is in the earth's shadow,  

DLR